This demonstration page uses our WeatherBlox Daily Observations layout. Learn more.

Left ArrowRight Arrow

Hourly Observations for April 15, 2017

Temp ( °F °C ) Dew Point ( °F °C ) Humidity (%) Winds ( mph kmh ) Pressure ( in mb ) Visibility ( mi km ) Precip ( " mm )
12:15 am 00:15 Clear 61 16 43 6 52 52 SSE 6 9 30.36 1028 10 16 N/A
12:35 am 00:35 Clear 59 15 43 6 55 55 SSE 6 9 30.36 1028 10 16 N/A
12:55 am 00:55 Clear 59 15 43 6 55 55 SSE 6 9 30.36 1028 10 16 N/A
1:15 am 01:15 Clear 59 15 43 6 55 55 SSE 6 9 30.36 1028 10 16 N/A
1:35 am 01:35 Clear 59 15 43 6 55 55 SSE 7 11 30.36 1028 10 16 N/A
1:55 am 01:55 Clear 57 14 43 6 59 59 SE 5 7 30.36 1028 10 16 N/A
2:15 am 02:15 Mostly Cloudy 57 14 43 6 59 59 SE 5 7 30.36 1028 10 16 N/A
2:35 am 02:35 Cloudy 55 13 43 6 63 63 SSE 6 9 30.36 1028 10 16 N/A
2:55 am 02:55 Cloudy 57 14 45 7 63 63 SE 7 11 30.36 1028 10 16 N/A
3:15 am 03:15 Cloudy 57 14 45 7 63 63 SSE 7 11 30.36 1028 10 16 N/A
3:35 am 03:35 Cloudy 57 14 45 7 63 63 SSE 9 15 30.36 1028 10 16 N/A
3:55 am 03:55 Cloudy 57 14 45 7 63 63 SE 5 7 30.36 1028 10 16 N/A
4:15 am 04:15 Cloudy 57 14 45 7 63 63 SSE 6 9 30.36 1028 10 16 N/A
4:35 am 04:35 Cloudy 57 14 45 7 63 63 SSE 7 11 30.33 1027 10 16 N/A
4:55 am 04:55 Cloudy 55 13 45 7 67 67 SSE 6 9 30.33 1027 10 16 N/A
5:15 am 05:15 Cloudy 55 13 45 7 67 67 SSE 8 13 30.33 1027 10 16 N/A
5:35 am 05:35 Cloudy 57 14 46 8 67 67 S 10 17 30.33 1027 10 16 N/A
5:55 am 05:55 Cloudy 57 14 45 7 63 63 S 10 17 30.33 1027 10 16 N/A
6:15 am 06:15 Cloudy 57 14 45 7 63 63 S 8 13 30.33 1027 10 16 N/A
6:35 am 06:35 Cloudy 57 14 45 7 63 63 S 7 11 30.33 1027 10 16 N/A
6:55 am 06:55 Cloudy 57 14 46 8 67 67 S 9 15 30.33 1027 10 16 N/A
7:15 am 07:15 Cloudy 57 14 46 8 67 67 S 5 7 30.36 1028 10 16 N/A
7:35 am 07:35 Cloudy 57 14 46 8 67 67 S 7 11 30.36 1028 10 16 N/A
7:55 am 07:55 Cloudy 57 14 46 8 67 67 S 6 9 30.36 1028 10 16 N/A
8:15 am 08:15 Cloudy 57 14 46 8 67 67 S 7 11 30.36 1028 10 16 N/A
8:35 am 08:35 Cloudy 59 15 46 8 63 63 S 8 13 30.36 1028 10 16 N/A
8:55 am 08:55 Cloudy 59 15 46 8 63 63 S 8 13 30.33 1027 10 16 N/A
9:15 am 09:15 Cloudy 59 15 46 8 63 63 S 9 15 30.33 1027 10 16 N/A
9:35 am 09:35 Cloudy 59 15 48 9 68 68 S 9 15 30.33 1027 10 16 N/A
9:55 am 09:55 Cloudy 61 16 48 9 63 63 S 9 15 30.33 1027 10 16 N/A
10:15 am 10:15 Cloudy 61 16 50 10 68 68 S 7 11 30.33 1027 10 16 N/A
10:35 am 10:35 Cloudy 63 17 50 10 64 64 S 9 15 30.33 1027 10 16 N/A
10:55 am 10:55 Cloudy 63 17 50 10 64 64 S 10 17 30.33 1027 10 16 N/A
11:35 am 11:35 Cloudy 64 18 52 11 64 64 SSE 5 7 30.30 1026 10 16 N/A
11:55 am 11:55 Partly Cloudy 66 19 54 12 64 64 SSW 7 11 30.30 1026 10 16 N/A
12:15 pm 12:15 Sunny 66 19 54 12 64 64 S 8 13 30.27 1025 10 16 N/A
12:35 pm 12:35 Sunny 68 20 54 12 60 60 S 6 9 30.27 1025 10 16 N/A
12:55 pm 12:55 Sunny 70 21 55 13 60 60 SSW 8 13 30.27 1025 10 16 N/A
1:15 pm 13:15 Sunny 70 21 55 13 60 60 S 5 7 30.27 1025 10 16 N/A
1:35 pm 13:35 Sunny 72 22 55 13 57 57 SE 3 6 30.24 1024 10 16 N/A
1:55 pm 13:55 Sunny 73 23 57 14 57 57 S 5 7 30.24 1024 10 16 N/A
2:15 pm 14:15 Sunny 73 23 57 14 57 57 S 8 13 30.21 1023 10 16 N/A
2:35 pm 14:35 Sunny 73 23 57 14 57 57 S 9 15 30.21 1023 10 16 N/A
2:55 pm 14:55 Sunny 75 24 57 14 54 54 S 9 15 30.21 1023 10 16 N/A
3:15 pm 15:15 Sunny 77 25 57 14 51 51 S 7 11 30.18 1022 10 16 N/A
3:35 pm 15:35 Sunny 77 25 57 14 51 51 SSW 8 13 30.18 1022 10 16 N/A
3:55 pm 15:55 Sunny 77 25 57 14 51 51 S 6 9 30.15 1021 10 16 N/A
4:15 pm 16:15 Sunny 77 25 59 15 54 54 S 7 11 30.15 1021 10 16 N/A
4:35 pm 16:35 Sunny 79 26 59 15 51 51 S 9 15 30.15 1021 10 16 N/A
4:55 pm 16:55 Sunny 79 26 59 15 51 51 SSE 10 17 30.15 1021 10 16 N/A
5:15 pm 17:15 Sunny 79 26 59 15 51 51 SSW 10 17 30.15 1021 10 16 N/A
5:35 pm 17:35 Sunny 79 26 59 15 51 51 S 10 17 30.15 1021 10 16 N/A
5:55 pm 17:55 Sunny 77 25 59 15 54 54 S 8 13 30.12 1020 10 16 N/A
6:15 pm 18:15 Sunny 79 26 59 15 51 51 SSW 7 11 30.12 1020 10 16 N/A
6:35 pm 18:35 Sunny 77 25 59 15 54 54 S 8 13 30.12 1020 10 16 N/A
6:55 pm 18:55 Sunny 77 25 59 15 54 54 S 6 9 30.12 1020 10 16 N/A
7:15 pm 19:15 Sunny 77 25 59 15 54 54 S 5 7 30.12 1020 10 16 N/A
7:35 pm 19:35 Sunny 75 24 59 15 57 57 S 3 6 30.12 1020 10 16 N/A
7:55 pm 19:55 Partly Cloudy 77 25 59 15 54 54 S 5 7 30.12 1020 10 16 N/A
8:15 pm 20:15 Mostly Cloudy 73 23 59 15 61 61 SSW 3 6 30.12 1020 10 16 N/A
8:35 pm 20:35 Cloudy with Light Rain 73 23 63 17 69 69 S 6 9 30.12 1020 10 16 N/A
8:55 pm 20:55 Cloudy 70 21 63 17 78 78 WNW 9 15 30.15 1021 7 11 N/A
9:15 pm 21:15 Cloudy with Heavy Rain 70 21 64 18 83 83 NW 6 9 30.18 1022 10 16 0.02 0.51
9:35 pm 21:35 Cloudy with Light Rain 70 21 64 18 83 83 N N/A 30.15 1021 7 11 0.11 2.79
9:55 pm 21:55 Cloudy with Light Rain 68 20 66 19 94 94 SSE 5 7 30.15 1021 10 16 0.11 2.79
10:15 pm 22:15 Partly Cloudy with Nearby Thunderstorms 68 20 64 18 88 88 N N/A 30.15 1021 10 16 N/A
10:35 pm 22:35 Partly Cloudy 66 19 66 19 100 100 SW 5 7 30.15 1021 7 11 N/A
10:55 pm 22:55 Clear 66 19 64 18 94 94 SW 6 9 30.12 1020 10 16 N/A
11:15 pm 23:15 Mostly Cloudy 66 19 64 18 94 94 SSW 7 11 30.12 1020 10 16 N/A
11:35 pm 23:35 Partly Cloudy 66 19 64 18 94 94 SSW 7 11 30.12 1020 10 16 N/A
11:55 pm 23:55 Clear 64 18 64 18 100 100 SW 3 6 30.12 1020 10 16 N/A

Powered by AerisWeather